| time (UTC) | temp F | wind direction | speed knots | gust knots | rain 1hr in | rain 24hr in | rain mn in | humidity % | barometer mb |
| 20260906022502 | 84 | 0 | 0.0 | 0.0 | 0.00 | 0.00 | 0.00 | 76 | 1011.3 |
| 20260906022003 | 84 | 0 | 0.0 | 0.0 | 0.00 | 0.00 | 0.00 | 76 | 1011.2 |
| 20260906021503 | 85 | 0 | 0.0 | 0.0 | 0.00 | 0.00 | 0.00 | 75 | 1011.1 |
| 20260906020503 | 85 | 0 | 0.0 | 0.0 | 0.00 | 0.00 | 0.00 | 74 | 1010.9 |
| 20260906015502 | 86 | 0 | 0.0 | 0.0 | 0.00 | 0.00 | 0.00 | 73 | 1010.9 |
| 20260906014502 | 86 | 0 | 0.0 | 0.0 | 0.00 | 0.00 | 0.00 | 73 | 1010.8 |
| 20260906014002 | 86 | 0 | 0.0 | 0.0 | 0.00 | 0.00 | 0.00 | 73 | 1010.7 |
| 20260906013504 | 86 | 0 | 0.0 | 0.0 | 0.00 | 0.00 | 0.00 | 72 | 1010.8 |
| 20260906012502 | 86 | 0 | 0.0 | 0.0 | 0.00 | 0.00 | 0.00 | 71 | 1010.7 |
| 20260906011502 | 87 | 0 | 0.0 | 0.0 | 0.00 | 0.00 | 0.00 | 70 | 1010.7 |
| 20260906011002 | 87 | 0 | 0.0 | 0.0 | 0.00 | 0.00 | 0.00 | 70 | 1010.6 |
| 20260906010504 | 87 | 0 | 0.0 | 0.0 | 0.00 | 0.00 | 0.00 | 69 | 1010.6 |
| 20260906010003 | 87 | 0 | 0.0 | 0.0 | 0.00 | 0.00 | 0.00 | 69 | 1010.5 |
| 20260906005502 | 88 | 0 | 0.0 | 0.0 | 0.00 | 0.00 | 0.00 | 68 | 1010.4 |
| 20260906005004 | 88 | 0 | 0.0 | 0.0 | 0.00 | 0.00 | 0.00 | 67 | 1010.2 |
| 20260906004003 | 89 | 0 | 0.0 | 0.0 | 0.00 | 0.00 | 0.00 | 66 | 1010.2 |
| 20260906003503 | 89 | 0 | 0.0 | 0.0 | 0.00 | 0.00 | 0.00 | 66 | 1010.1 |
| 20260906003002 | 89 | 0 | 0.0 | 0.0 | 0.00 | 0.00 | 0.00 | 65 | 1010.2 |
| 20260906002503 | 90 | 0 | 0.0 | 0.0 | 0.00 | 0.00 | 0.00 | 64 | 1010.2 |
| 20260906001003 | 90 | 37 | 1.7 | 2.6 | 0.00 | 0.00 | 0.00 | 63 | 1010.3 |
| 20260906000504 | 91 | 37 | 1.7 | 2.6 | 0.00 | 0.00 | 0.00 | 62 | 1010.3 |
| 20260906000002 | 91 | 37 | 1.7 | 2.6 | 0.00 | 0.00 | 0.00 | 61 | 1010.3 |
| 20260905235503 | 92 | 36 | 1.7 | 2.6 | 0.00 | 0.00 | 0.00 | 60 | 1010.3 |
| 20260905234002 | 93 | 38 | 2.6 | 3.5 | 0.00 | 0.00 | 0.00 | 58 | 1010.2 |
| 20260905233503 | 93 | 30 | 2.6 | 3.5 | 0.00 | 0.00 | 0.00 | 58 | 1010.2 |
| 20260905233002 | 93 | 13 | 2.6 | 6.1 | 0.00 | 0.00 | 0.00 | 57 | 1010.2 |
| 20260905232503 | 94 | 15 | 3.5 | 7.0 | 0.00 | 0.00 | 0.00 | 57 | 1010.2 |
| 20260905232004 | 94 | 23 | 3.5 | 7.0 | 0.00 | 0.00 | 0.00 | 56 | 1010.2 |
| 20260905231502 | 94 | 30 | 3.5 | 5.2 | 0.00 | 0.00 | 0.00 | 56 | 1010.0 |
| 20260905231002 | 95 | 19 | 3.5 | 7.8 | 0.00 | 0.00 | 0.00 | 55 | 1010.0 |
| 20260905230504 | 95 | 4 | 4.3 | 7.8 | 0.00 | 0.00 | 0.00 | 55 | 1010.1 |
| 20260905230002 | 95 | 2 | 3.5 | 7.0 | 0.00 | 0.00 | 0.00 | 54 | 1009.9 |
| 20260905225502 | 95 | 2 | 5.2 | 9.6 | 0.00 | 0.00 | 0.00 | 53 | 1010.0 |
| 20260905224502 | 96 | 1 | 7.0 | 13.0 | 0.00 | 0.00 | 0.00 | 52 | 1009.9 |
| 20260905224002 | 96 | 3 | 7.8 | 12.2 | 0.00 | 0.00 | 0.00 | 52 | 1010.0 |
| 20260905223003 | 97 | 3 | 6.1 | 10.4 | 0.00 | 0.00 | 0.00 | 51 | 1009.9 |
| 20260905222502 | 97 | 6 | 7.0 | 10.4 | 0.00 | 0.00 | 0.00 | 51 | 1009.9 |
| 20260905222003 | 97 | 5 | 7.0 | 11.3 | 0.00 | 0.00 | 0.00 | 50 | 1009.9 |
| 20260905220503 | 97 | 355 | 6.1 | 10.4 | 0.00 | 0.00 | 0.00 | 50 | 1009.8 |
| 20260905220002 | 97 | 355 | 6.1 | 11.3 | 0.00 | 0.00 | 0.00 | 50 | 1010.0 |
| 20260905215502 | 97 | 358 | 6.1 | 11.3 | 0.00 | 0.00 | 0.00 | 49 | 1009.8 |
| 20260905215004 | 98 | 347 | 5.2 | 11.3 | 0.00 | 0.00 | 0.00 | 49 | 1009.8 |
| 20260905214502 | 97 | 344 | 5.2 | 10.4 | 0.00 | 0.00 | 0.00 | 50 | 1009.8 |
| 20260905214002 | 97 | 349 | 6.1 | 10.4 | 0.00 | 0.00 | 0.00 | 50 | 1009.7 |
| 20260905213002 | 96 | 344 | 4.3 | 9.6 | 0.00 | 0.00 | 0.00 | 52 | 1009.8 |
| 20260905212502 | 96 | 335 | 4.3 | 7.8 | 0.00 | 0.00 | 0.00 | 52 | 1009.9 |
| 20260905211502 | 96 | 338 | 6.1 | 11.3 | 0.00 | 0.00 | 0.00 | 50 | 1010.1 |
| 20260905211002 | 96 | 339 | 7.0 | 12.2 | 0.00 | 0.00 | 0.00 | 49 | 1010.1 |
| 20260905210002 | 98 | 353 | 7.8 | 13.9 | 0.00 | 0.00 | 0.00 | 49 | 1010.2 |
| 20260905205502 | 98 | 351 | 8.7 | 14.8 | 0.00 | 0.00 | 0.00 | 48 | 1010.2 |
| 20260905205004 | 98 | 345 | 8.7 | 16.5 | 0.00 | 0.00 | 0.00 | 47 | 1010.3 |
| 20260905204502 | 98 | 348 | 8.7 | 16.5 | 0.00 | 0.00 | 0.00 | 48 | 1010.3 |
| 20260905204002 | 99 | 349 | 6.1 | 14.8 | 0.00 | 0.00 | 0.00 | 47 | 1010.3 |
| 20260905203503 | 99 | 337 | 5.2 | 13.0 | 0.00 | 0.00 | 0.00 | 47 | 1010.1 |
| 20260905203002 | 99 | 336 | 5.2 | 13.0 | 0.00 | 0.00 | 0.00 | 46 | 1010.2 |
| 20260905202502 | 99 | 337 | 4.3 | 10.4 | 0.00 | 0.00 | 0.00 | 46 | 1010.3 |
| 20260905201003 | 100 | 317 | 4.3 | 13.0 | 0.00 | 0.00 | 0.00 | 46 | 1010.4 |
| 20260905200002 | 100 | 356 | 6.1 | 10.4 | 0.00 | 0.00 | 0.00 | 46 | 1010.5 |
| 20260905195502 | 99 | 350 | 6.1 | 10.4 | 0.00 | 0.00 | 0.00 | 47 | 1010.5 |
| 20260905195004 | 99 | 333 | 6.1 | 10.4 | 0.00 | 0.00 | 0.00 | 47 | 1010.5 |
| 20260905194502 | 99 | 322 | 5.2 | 10.4 | 0.00 | 0.00 | 0.00 | 47 | 1010.6 |
| 20260905194002 | 100 | 299 | 3.5 | 9.6 | 0.00 | 0.00 | 0.00 | 47 | 1010.5 |
| 20260905193504 | 99 | 278 | 3.5 | 9.6 | 0.00 | 0.00 | 0.00 | 46 | 1010.6 |
| 20260905193002 | 100 | 272 | 3.5 | 9.6 | 0.00 | 0.00 | 0.00 | 47 | 1010.5 |
| 20260905192502 | 100 | 307 | 1.7 | 8.7 | 0.00 | 0.00 | 0.00 | 47 | 1010.6 |
| 20260905192003 | 99 | 305 | 1.7 | 5.2 | 0.00 | 0.00 | 0.00 | 49 | 1010.7 |
| 20260905191001 | 98 | 275 | 2.6 | 6.1 | 0.00 | 0.00 | 0.00 | 50 | 1010.9 |
| 20260905190503 | 98 | 275 | 3.5 | 8.7 | 0.00 | 0.00 | 0.00 | 50 | 1010.9 |
| 20260905190002 | 98 | 269 | 3.5 | 8.7 | 0.00 | 0.00 | 0.00 | 48 | 1011.0 |
| 20260905185502 | 98 | 264 | 3.5 | 8.7 | 0.00 | 0.00 | 0.00 | 50 | 1011.1 |
| 20260905184501 | 97 | 264 | 2.6 | 6.1 | 0.00 | 0.00 | 0.00 | 50 | 1011.2 |
| 20260905184002 | 97 | 245 | 2.6 | 5.2 | 0.00 | 0.00 | 0.00 | 52 | 1011.3 |
| 20260905183504 | 97 | 295 | 2.6 | 8.7 | 0.00 | 0.00 | 0.00 | 53 | 1011.5 |
| 20260905183002 | 97 | 307 | 3.5 | 9.6 | 0.00 | 0.00 | 0.00 | 52 | 1011.5 |
| 20260905182502 | 97 | 283 | 3.5 | 9.6 | 0.00 | 0.00 | 0.00 | 53 | 1011.6 |
| 20260905182004 | 97 | 264 | 1.7 | 6.1 | 0.00 | 0.00 | 0.00 | 55 | 1011.5 |
| 20260905181501 | 96 | 241 | 1.7 | 4.3 | 0.00 | 0.00 | 0.00 | 55 | 1011.5 |
| 20260905181001 | 96 | 231 | 1.7 | 7.0 | 0.00 | 0.00 | 0.00 | 55 | 1011.6 |
| 20260905180504 | 96 | 245 | 2.6 | 7.8 | 0.00 | 0.00 | 0.00 | 56 | 1011.7 |
| 20260905180002 | 96 | 236 | 3.5 | 7.8 | 0.00 | 0.00 | 0.00 | 55 | 1011.7 |
| 20260905175502 | 96 | 235 | 3.5 | 7.0 | 0.00 | 0.00 | 0.00 | 56 | 1011.7 |
| 20260905175003 | 96 | 235 | 2.6 | 7.0 | 0.00 | 0.00 | 0.00 | 57 | 1011.8 |
| 20260905174002 | 95 | 276 | 2.6 | 7.0 | 0.00 | 0.00 | 0.00 | 58 | 1011.9 |
| 20260905173002 | 95 | 243 | 2.6 | 7.8 | 0.00 | 0.00 | 0.00 | 58 | 1011.9 |
| 20260905172502 | 95 | 241 | 3.5 | 8.7 | 0.00 | 0.00 | 0.00 | 59 | 1011.9 |
| 20260905172003 | 95 | 248 | 2.6 | 8.7 | 0.00 | 0.00 | 0.00 | 61 | 1012.0 |
| 20260905171502 | 94 | 261 | 1.7 | 7.0 | 0.00 | 0.00 | 0.00 | 61 | 1012.1 |
| 20260905171001 | 94 | 226 | 2.6 | 7.0 | 0.00 | 0.00 | 0.00 | 61 | 1012.2 |
| 20260905170503 | 94 | 221 | 3.5 | 7.0 | 0.00 | 0.00 | 0.00 | 61 | 1012.3 |
| 20260905165502 | 93 | 242 | 2.6 | 6.1 | 0.00 | 0.00 | 0.00 | 62 | 1012.4 |
| 20260905165003 | 93 | 226 | 2.6 | 6.1 | 0.00 | 0.00 | 0.00 | 62 | 1012.5 |
| 20260905164502 | 93 | 219 | 3.5 | 7.8 | 0.00 | 0.00 | 0.00 | 62 | 1012.4 |
| 20260905164002 | 93 | 202 | 3.5 | 8.7 | 0.00 | 0.00 | 0.00 | 62 | 1012.5 |
| 20260905163504 | 93 | 210 | 2.6 | 8.7 | 0.00 | 0.00 | 0.00 | 63 | 1012.4 |
| 20260905163001 | 92 | 242 | 2.6 | 7.0 | 0.00 | 0.00 | 0.00 | 64 | 1012.5 |
| 20260905162502 | 92 | 234 | 3.5 | 6.1 | 0.00 | 0.00 | 0.00 | 63 | 1012.5 |
| 20260905162003 | 92 | 220 | 2.6 | 6.1 | 0.00 | 0.00 | 0.00 | 63 | 1012.7 |
| 20260905161502 | 92 | 246 | 1.7 | 5.2 | 0.00 | 0.00 | 0.00 | 64 | 1012.7 |
| 20260905161002 | 91 | 272 | 2.6 | 6.1 | 0.00 | 0.00 | 0.00 | 65 | 1012.7 |
| 20260905160503 | 91 | 267 | 2.6 | 7.0 | 0.00 | 0.00 | 0.00 | 65 | 1012.7 |
| 20260905160002 | 91 | 244 | 2.6 | 7.0 | 0.00 | 0.00 | 0.00 | 65 | 1012.6 |
| 20260905155501 | 91 | 217 | 2.6 | 7.8 | 0.00 | 0.00 | 0.00 | 66 | 1012.6 |
| 20260905155003 | 91 | 214 | 2.6 | 7.8 | 0.00 | 0.00 | 0.00 | 67 | 1012.6 |
| 20260905154501 | 90 | 224 | 2.6 | 6.1 | 0.00 | 0.00 | 0.00 | 67 | 1012.7 |
| 20260905154002 | 90 | 245 | 2.6 | 6.1 | 0.00 | 0.00 | 0.00 | 68 | 1012.8 |
| 20260905153503 | 90 | 234 | 2.6 | 5.2 | 0.00 | 0.00 | 0.00 | 69 | 1012.8 |
| 20260905153002 | 90 | 240 | 2.6 | 5.2 | 0.00 | 0.00 | 0.00 | 68 | 1012.8 |
| 20260905152003 | 89 | 250 | 1.7 | 6.1 | 0.00 | 0.00 | 0.00 | 70 | 1012.8 |
| 20260905151502 | 89 | 252 | 1.7 | 5.2 | 0.00 | 0.00 | 0.00 | 71 | 1012.8 |
| 20260905151002 | 88 | 258 | 2.6 | 5.2 | 0.00 | 0.00 | 0.00 | 70 | 1012.8 |
| 20260905150503 | 88 | 234 | 2.6 | 7.0 | 0.00 | 0.00 | 0.00 | 70 | 1012.9 |
| 20260905150002 | 88 | 232 | 2.6 | 7.0 | 0.00 | 0.00 | 0.00 | 70 | 1012.8 |
| 20260905145501 | 88 | 231 | 0.9 | 3.5 | 0.00 | 0.00 | 0.00 | 73 | 1012.8 |
| 20260905145003 | 88 | 220 | 1.7 | 4.3 | 0.00 | 0.00 | 0.00 | 73 | 1012.8 |
| 20260905144502 | 87 | 236 | 2.6 | 4.3 | 0.00 | 0.00 | 0.00 | 72 | 1012.7 |
| 20260905144002 | 87 | 237 | 1.7 | 5.2 | 0.00 | 0.00 | 0.00 | 74 | 1012.7 |
| 20260905143505 | 87 | 234 | 1.7 | 6.1 | 0.00 | 0.00 | 0.00 | 75 | 1012.7 |
| 20260905143001 | 86 | 239 | 1.7 | 6.1 | 0.00 | 0.00 | 0.00 | 76 | 1012.7 |
| 20260905142501 | 86 | 221 | 2.6 | 6.1 | 0.00 | 0.00 | 0.00 | 77 | 1012.6 |
| 20260905142003 | 86 | 215 | 2.6 | 4.3 | 0.00 | 0.00 | 0.00 | 78 | 1012.6 |
| 20260905141002 | 85 | 225 | 1.7 | 3.5 | 0.00 | 0.00 | 0.00 | 78 | 1012.8 |
| 20260905140503 | 85 | 216 | 0.9 | 3.5 | 0.00 | 0.00 | 0.00 | 80 | 1012.9 |
| 20260905140001 | 84 | 213 | 1.7 | 4.3 | 0.00 | 0.00 | 0.00 | 81 | 1012.9 |
| 20260905135502 | 84 | 211 | 1.7 | 4.3 | 0.00 | 0.00 | 0.00 | 81 | 1012.9 |
| 20260905135003 | 84 | 219 | 0.9 | 3.5 | 0.00 | 0.00 | 0.00 | 81 | 1013.0 |
| 20260905134502 | 83 | 0 | 0.0 | 0.0 | 0.00 | 0.00 | 0.00 | 83 | 1013.0 |
| 20260905134002 | 83 | 0 | 0.0 | 0.0 | 0.00 | 0.00 | 0.00 | 83 | 1013.0 |
| 20260905133503 | 82 | 0 | 0.0 | 0.0 | 0.00 | 0.00 | 0.00 | 84 | 1013.0 |
| 20260905133001 | 82 | 0 | 0.0 | 0.0 | 0.00 | 0.00 | 0.00 | 84 | 1012.9 |
| 20260905132502 | 81 | 187 | 0.0 | 2.6 | 0.00 | 0.00 | 0.00 | 85 | 1012.9 |
| 20260905132004 | 81 | 188 | 1.7 | 4.3 | 0.00 | 0.00 | 0.00 | 85 | 1012.9 |
| 20260905131502 | 80 | 191 | 1.7 | 4.3 | 0.00 | 0.00 | 0.00 | 86 | 1012.9 |
| 20260905131001 | 80 | 195 | 0.9 | 4.3 | 0.00 | 0.00 | 0.00 | 86 | 1012.8 |
| 20260905130503 | 79 | 0 | 0.0 | 0.0 | 0.00 | 0.00 | 0.00 | 87 | 1012.9 |
| 20260905130002 | 78 | 251 | 0.0 | 1.7 | 0.00 | 0.00 | 0.00 | 88 | 1012.8 |
| 20260905125502 | 78 | 251 | 0.9 | 1.7 | 0.00 | 0.00 | 0.00 | 88 | 1012.8 |
| 20260905125003 | 77 | 250 | 0.9 | 1.7 | 0.00 | 0.00 | 0.00 | 88 | 1012.8 |
| 20260905124502 | 77 | 0 | 0.0 | 0.0 | 0.00 | 0.00 | 0.00 | 88 | 1012.8 |
| 20260905124001 | 76 | 0 | 0.0 | 0.0 | 0.00 | 0.00 | 0.00 | 89 | 1012.8 |
| 20260905123503 | 76 | 0 | 0.0 | 0.0 | 0.00 | 0.00 | 0.00 | 89 | 1012.7 |
| 20260905123001 | 75 | 0 | 0.0 | 0.0 | 0.00 | 0.00 | 0.00 | 89 | 1012.7 |
| 20260905122501 | 75 | 0 | 0.0 | 0.0 | 0.00 | 0.00 | 0.00 | 89 | 1012.7 |
| 20260905122003 | 74 | 0 | 0.0 | 0.0 | 0.00 | 0.00 | 0.00 | 89 | 1012.7 |
| 20260905121001 | 74 | 0 | 0.0 | 0.0 | 0.00 | 0.00 | 0.00 | 89 | 1012.5 |
| 20260905120503 | 73 | 0 | 0.0 | 0.0 | 0.00 | 0.00 | 0.00 | 89 | 1012.4 |
| 20260905120002 | 73 | 0 | 0.0 | 0.0 | 0.00 | 0.00 | 0.00 | 89 | 1012.4 |
| 20260905115502 | 73 | 0 | 0.0 | 0.0 | 0.00 | 0.00 | 0.00 | 89 | 1012.3 |
| 20260905115003 | 73 | 0 | 0.0 | 0.0 | 0.00 | 0.00 | 0.00 | 89 | 1012.3 |
| 20260905114502 | 73 | 0 | 0.0 | 0.0 | 0.00 | 0.00 | 0.00 | 89 | 1012.3 |
| 20260905114002 | 73 | 0 | 0.0 | 0.0 | 0.00 | 0.00 | 0.00 | 89 | 1012.3 |
| 20260905113503 | 73 | 0 | 0.0 | 0.0 | 0.00 | 0.00 | 0.00 | 89 | 1012.3 |
| 20260905113001 | 73 | 0 | 0.0 | 0.0 | 0.00 | 0.00 | 0.00 | 89 | 1012.3 |
| 20260905112502 | 73 | 0 | 0.0 | 0.0 | 0.00 | 0.00 | 0.00 | 89 | 1012.3 |
| 20260905111502 | 73 | 0 | 0.0 | 0.0 | 0.00 | 0.00 | 0.00 | 89 | 1012.3 |
| 20260905110503 | 73 | 0 | 0.0 | 0.0 | 0.00 | 0.00 | 0.00 | 88 | 1012.2 |
| 20260905110001 | 73 | 0 | 0.0 | 0.0 | 0.00 | 0.00 | 0.00 | 89 | 1012.1 |
| 20260905105502 | 73 | 0 | 0.0 | 0.0 | 0.00 | 0.00 | 0.00 | 89 | 1012.2 |
| 20260905105002 | 74 | 0 | 0.0 | 0.0 | 0.00 | 0.00 | 0.00 | 88 | 1012.1 |
| 20260905104002 | 74 | 0 | 0.0 | 0.0 | 0.00 | 0.00 | 0.00 | 88 | 1012.1 |
| 20260905103503 | 74 | 0 | 0.0 | 0.0 | 0.00 | 0.00 | 0.00 | 88 | 1012.1 |
| 20260905103002 | 74 | 0 | 0.0 | 0.0 | 0.00 | 0.00 | 0.00 | 88 | 1012.2 |
| 20260905102501 | 74 | 0 | 0.0 | 0.0 | 0.00 | 0.00 | 0.00 | 88 | 1012.2 |
| 20260905102003 | 74 | 0 | 0.0 | 0.0 | 0.00 | 0.00 | 0.00 | 88 | 1012.2 |
| 20260905101502 | 74 | 0 | 0.0 | 0.0 | 0.00 | 0.00 | 0.00 | 88 | 1012.3 |
| 20260905101001 | 74 | 0 | 0.0 | 0.0 | 0.00 | 0.00 | 0.00 | 88 | 1012.2 |
| 20260905100503 | 74 | 0 | 0.0 | 0.0 | 0.00 | 0.00 | 0.00 | 88 | 1012.1 |
| 20260905100001 | 74 | 0 | 0.0 | 0.0 | 0.00 | 0.00 | 0.00 | 88 | 1012.1 |
| 20260905095501 | 74 | 0 | 0.0 | 0.0 | 0.00 | 0.00 | 0.00 | 88 | 1012.2 |
| 20260905095003 | 74 | 0 | 0.0 | 0.0 | 0.00 | 0.00 | 0.00 | 88 | 1012.2 |
| 20260905094501 | 74 | 0 | 0.0 | 0.0 | 0.00 | 0.00 | 0.00 | 88 | 1012.1 |
| 20260905094002 | 74 | 0 | 0.0 | 0.0 | 0.00 | 0.00 | 0.00 | 88 | 1012.1 |
| 20260905093502 | 74 | 0 | 0.0 | 0.0 | 0.00 | 0.00 | 0.00 | 88 | 1012.1 |
| 20260905093002 | 74 | 0 | 0.0 | 0.0 | 0.00 | 0.00 | 0.00 | 87 | 1012.0 |
| 20260905092501 | 75 | 0 | 0.0 | 0.0 | 0.00 | 0.00 | 0.00 | 87 | 1012.0 |
| 20260905092002 | 75 | 0 | 0.0 | 0.0 | 0.00 | 0.00 | 0.00 | 87 | 1011.9 |
| 20260905091502 | 75 | 0 | 0.0 | 0.0 | 0.00 | 0.00 | 0.00 | 87 | 1011.9 |
| 20260905091001 | 75 | 0 | 0.0 | 0.0 | 0.00 | 0.00 | 0.00 | 87 | 1012.0 |
| 20260905090503 | 75 | 0 | 0.0 | 0.0 | 0.00 | 0.00 | 0.00 | 87 | 1012.0 |
| 20260905085501 | 75 | 0 | 0.0 | 0.0 | 0.00 | 0.00 | 0.00 | 87 | 1011.9 |
| 20260905085003 | 75 | 0 | 0.0 | 0.0 | 0.00 | 0.00 | 0.00 | 87 | 1011.9 |
| 20260905084501 | 75 | 0 | 0.0 | 0.0 | 0.00 | 0.00 | 0.00 | 87 | 1011.9 |
| 20260905084001 | 75 | 0 | 0.0 | 0.0 | 0.00 | 0.00 | 0.00 | 87 | 1012.0 |
| 20260905083503 | 75 | 0 | 0.0 | 0.0 | 0.00 | 0.00 | 0.00 | 87 | 1012.0 |
| 20260905083001 | 75 | 0 | 0.0 | 0.0 | 0.00 | 0.00 | 0.00 | 87 | 1012.0 |
| 20260905082003 | 75 | 0 | 0.0 | 0.0 | 0.00 | 0.00 | 0.00 | 87 | 1012.1 |
| 20260905081501 | 75 | 0 | 0.0 | 0.0 | 0.00 | 0.00 | 0.00 | 87 | 1012.1 |
| 20260905081002 | 75 | 0 | 0.0 | 0.0 | 0.00 | 0.00 | 0.00 | 87 | 1012.1 |
| 20260905080503 | 75 | 0 | 0.0 | 0.0 | 0.00 | 0.00 | 0.00 | 87 | 1012.2 |
| 20260905075502 | 75 | 0 | 0.0 | 0.0 | 0.00 | 0.00 | 0.00 | 87 | 1012.3 |
| 20260905075002 | 75 | 0 | 0.0 | 0.0 | 0.00 | 0.00 | 0.00 | 87 | 1012.2 |
| 20260905074501 | 75 | 0 | 0.0 | 0.0 | 0.00 | 0.00 | 0.00 | 87 | 1012.2 |
| 20260905074001 | 76 | 0 | 0.0 | 0.0 | 0.00 | 0.00 | 0.00 | 87 | 1012.2 |
| 20260905073002 | 76 | 0 | 0.0 | 0.0 | 0.00 | 0.00 | 0.00 | 87 | 1012.2 |
| 20260905072501 | 76 | 0 | 0.0 | 0.0 | 0.00 | 0.00 | 0.00 | 87 | 1012.1 |
| 20260905072003 | 76 | 0 | 0.0 | 0.0 | 0.00 | 0.00 | 0.00 | 86 | 1012.1 |
| 20260905071501 | 76 | 0 | 0.0 | 0.0 | 0.00 | 0.00 | 0.00 | 86 | 1012.1 |
| 20260905071001 | 76 | 0 | 0.0 | 0.0 | 0.00 | 0.00 | 0.00 | 86 | 1012.2 |
| 20260905070503 | 76 | 0 | 0.0 | 0.0 | 0.00 | 0.00 | 0.00 | 86 | 1012.2 |
| 20260905070001 | 76 | 0 | 0.0 | 0.0 | 0.00 | 0.00 | 0.00 | 86 | 1012.2 |
| 20260905065501 | 76 | 0 | 0.0 | 0.0 | 0.00 | 0.00 | 0.00 | 86 | 1012.3 |
| 20260905064501 | 76 | 0 | 0.0 | 0.0 | 0.00 | 0.00 | 0.00 | 86 | 1012.2 |
| 20260905064002 | 76 | 0 | 0.0 | 0.0 | 0.00 | 0.00 | 0.00 | 86 | 1012.3 |
| 20260905063503 | 77 | 0 | 0.0 | 0.0 | 0.00 | 0.00 | 0.00 | 85 | 1012.3 |
| 20260905063001 | 77 | 0 | 0.0 | 0.0 | 0.00 | 0.00 | 0.00 | 85 | 1012.2 |
| 20260905062003 | 77 | 0 | 0.0 | 0.0 | 0.00 | 0.00 | 0.00 | 85 | 1012.3 |
| 20260905061501 | 77 | 0 | 0.0 | 0.0 | 0.00 | 0.00 | 0.00 | 85 | 1012.4 |
| 20260905061001 | 77 | 0 | 0.0 | 0.0 | 0.00 | 0.00 | 0.00 | 85 | 1012.5 |
| 20260905060503 | 77 | 0 | 0.0 | 0.0 | 0.00 | 0.00 | 0.00 | 85 | 1012.5 |
| 20260905060001 | 77 | 0 | 0.0 | 0.0 | 0.00 | 0.00 | 0.00 | 85 | 1012.5 |
| 20260905055003 | 77 | 0 | 0.0 | 0.0 | 0.00 | 0.00 | 0.00 | 85 | 1012.5 |
| 20260905054501 | 77 | 0 | 0.0 | 0.0 | 0.00 | 0.00 | 0.00 | 85 | 1012.6 |
| 20260905054001 | 77 | 0 | 0.0 | 0.0 | 0.00 | 0.00 | 0.00 | 85 | 1012.5 |
| 20260905053001 | 77 | 0 | 0.0 | 0.0 | 0.00 | 0.00 | 0.00 | 85 | 1012.6 |
| 20260905052501 | 77 | 0 | 0.0 | 0.0 | 0.00 | 0.00 | 0.00 | 85 | 1012.6 |
| 20260905052003 | 78 | 0 | 0.0 | 0.0 | 0.00 | 0.00 | 0.00 | 84 | 1012.6 |
| 20260905051001 | 78 | 0 | 0.0 | 0.0 | 0.00 | 0.00 | 0.00 | 84 | 1012.6 |
| 20260905050503 | 78 | 0 | 0.0 | 0.0 | 0.00 | 0.00 | 0.00 | 83 | 1012.6 |
| 20260905050001 | 78 | 0 | 0.0 | 0.0 | 0.00 | 0.00 | 0.00 | 83 | 1012.6 |
| 20260905045501 | 78 | 0 | 0.0 | 0.0 | 0.00 | 0.00 | 0.00 | 83 | 1012.6 |
| 20260905045003 | 78 | 0 | 0.0 | 0.0 | 0.00 | 0.00 | 0.00 | 83 | 1012.7 |
| 20260905044502 | 79 | 0 | 0.0 | 0.0 | 0.00 | 0.00 | 0.00 | 83 | 1012.7 |
| 20260905043503 | 78 | 0 | 0.0 | 0.0 | 0.00 | 0.00 | 0.00 | 83 | 1012.6 |
| 20260905043001 | 78 | 0 | 0.0 | 0.0 | 0.00 | 0.00 | 0.00 | 84 | 1012.6 |
| 20260905042501 | 78 | 0 | 0.0 | 0.0 | 0.00 | 0.00 | 0.00 | 84 | 1012.5 |
| 20260905041001 | 78 | 0 | 0.0 | 0.0 | 0.00 | 0.00 | 0.00 | 84 | 1012.5 |
| 20260905040001 | 78 | 0 | 0.0 | 0.0 | 0.00 | 0.00 | 0.00 | 83 | 1012.4 |
| 20260905035501 | 78 | 0 | 0.0 | 0.0 | 0.00 | 0.00 | 0.00 | 83 | 1012.5 |
| 20260905035002 | 78 | 0 | 0.0 | 0.0 | 0.00 | 0.00 | 0.00 | 83 | 1012.4 |
| 20260905034501 | 78 | 0 | 0.0 | 0.0 | 0.00 | 0.00 | 0.00 | 83 | 1012.4 |
| 20260905034001 | 79 | 0 | 0.0 | 0.0 | 0.00 | 0.00 | 0.00 | 82 | 1012.4 |
| 20260905033001 | 79 | 0 | 0.0 | 0.0 | 0.00 | 0.00 | 0.00 | 83 | 1012.4 |
| 20260905032501 | 79 | 0 | 0.0 | 0.0 | 0.00 | 0.00 | 0.00 | 82 | 1012.5 |
| 20260905032003 | 79 | 0 | 0.0 | 0.0 | 0.00 | 0.00 | 0.00 | 82 | 1012.5 |
| 20260905031500 | 79 | 0 | 0.0 | 0.0 | 0.00 | 0.00 | 0.00 | 83 | 1012.5 |
| 20260905031001 | 79 | 0 | 0.0 | 0.0 | 0.00 | 0.00 | 0.00 | 82 | 1012.4 |
| 20260905030503 | 79 | 0 | 0.0 | 0.0 | 0.00 | 0.00 | 0.00 | 82 | 1012.5 |
| 20260905030001 | 79 | 0 | 0.0 | 0.0 | 0.00 | 0.00 | 0.00 | 82 | 1012.4 |
| 20260905025501 | 80 | 0 | 0.0 | 0.0 | 0.00 | 0.00 | 0.00 | 81 | 1012.5 |
| 20260905024000 | 80 | 0 | 0.0 | 0.0 | 0.00 | 0.00 | 0.00 | 80 | 1012.4 |
| 20260905023502 | 80 | 0 | 0.0 | 0.0 | 0.00 | 0.00 | 0.00 | 80 | 1012.4 |
| 20260905023002 | 80 | 0 | 0.0 | 0.0 | 0.00 | 0.00 | 0.00 | 80 | 1012.3 |